GW6069 Weather Reports


time (UTC)temp
F
wind
direction
speed
knots
gust
knots
rain 1hr
in
rain 24hr
in
rain mn
in
humidity
%
barometer
mb
20260506032809 50 2 7.8 13.9 0.00 0.00 0.00 86 1008.2
20260506032309 50 353 13.9 18.2 0.00 0.00 0.00 86 1008.0
20260506031806 50 357 18.2 18.2 0.00 0.00 0.00 86 1008.3
20260506031306 49 359 13.9 16.5 0.00 0.00 0.00 86 1008.3
20260506030806 49 352 11.3 16.5 0.00 0.00 0.00 86 1008.2
20260506030307 49 10 11.3 15.6 0.00 0.00 0.00 86 1008.1
20260506025805 49 350 8.7 16.5 0.00 0.00 0.00 86 1008.3
20260506025306 49 8 10.4 16.5 0.00 0.00 0.00 86 1008.3
20260506025032 49 353 11.3 13.9 0.00 0.00 0.00 87 1008.4
20260506024305 49 0 10.4 13.9 0.00 0.00 0.00 87 1008.4
20260506023805 49 7 13.9 14.8 0.00 0.00 0.00 87 1008.4
20260506023530 49 348 12.2 14.8 0.00 0.00 0.00 87 1008.4
20260506022803 49 353 9.6 14.8 0.00 0.00 0.00 87 1008.5
20260506022531 49 348 11.3 15.6 0.00 0.00 0.00 87 1008.6
20260506021802 49 22 10.4 15.6 0.00 0.00 0.00 87 1008.5
20260506021302 49 12 9.6 15.6 0.00 0.00 0.00 86 1008.5
20260506020800 49 352 10.4 15.6 0.00 0.00 0.00 86 1008.5
20260506020300 49 5 9.6 13.9 0.00 0.00 0.00 86 1008.4
20260506015801 49 4 8.7 13.9 0.00 0.00 0.00 86 1008.5
20260506015259 49 357 8.7 13.9 0.00 0.00 0.00 85 1008.5
20260506014800 49 351 10.4 15.6 0.00 0.00 0.00 85 1008.3
20260506014258 49 347 7.0 15.6 0.00 0.00 0.00 84 1008.4
20260506014027 50 8 12.2 15.6 0.00 0.00 0.00 84 1008.6
20260506013257 49 355 9.6 16.5 0.00 0.00 0.00 84 1008.5
20260506012757 49 0 14.8 16.5 0.00 0.00 0.00 84 1008.5
20260506012256 50 351 13.9 16.5 0.00 0.00 0.00 84 1008.5
20260506011755 50 353 14.8 17.4 0.00 0.00 0.00 84 1008.7
20260506011527 49 350 17.4 17.4 0.00 0.00 0.00 84 1008.7
20260506011028 49 4 14.8 17.4 0.00 0.00 0.00 84 1008.6
20260506010253 49 4 11.3 16.5 0.00 0.00 0.00 84 1008.6
20260506010025 49 352 11.3 16.5 0.00 0.00 0.00 84 1008.6
20260506005251 49 355 13.0 17.4 0.00 0.00 0.00 84 1008.7
20260506005026 49 359 14.8 17.4 0.00 0.00 0.00 83 1008.8
20260506004250 49 350 13.0 15.6 0.00 0.00 0.00 83 1009.0
20260506003750 49 353 8.7 17.4 0.00 0.00 0.00 83 1008.9
20260506003249 49 355 11.3 17.4 0.00 0.00 0.00 83 1009.0
20260506002751 49 7 12.2 15.6 0.00 0.00 0.00 83 1008.9
20260506002250 49 358 13.0 15.6 0.00 0.00 0.00 83 1009.1
20260506001751 49 17 9.6 14.8 0.00 0.00 0.00 84 1009.0
20260506001249 49 354 11.3 14.8 0.00 0.00 0.00 84 1009.1
20260506000746 49 5 8.7 14.8 0.00 0.00 0.00 84 1009.2
20260506000247 49 5 8.7 14.8 0.00 0.00 0.00 84 1009.2
20260505235747 48 359 8.7 14.8 0.00 0.00 0.00 84 1009.3
20260505235246 48 356 9.6 13.0 0.00 0.00 0.00 85 1009.2
20260505234744 48 1 9.6 13.0 0.00 0.00 0.00 85 1009.2
20260505234243 48 354 9.6 13.9 0.00 0.00 0.00 84 1009.5
20260505233744 48 0 10.4 13.9 0.00 0.00 0.00 84 1009.2
20260505233245 48 358 7.0 11.3 0.00 0.00 0.00 84 1009.3
20260505232745 48 0 8.7 13.0 0.00 0.00 0.00 84 1009.2
20260505232242 48 358 8.7 13.0 0.00 0.00 0.00 84 1009.3
20260505231747 49 357 10.4 13.9 0.00 0.00 0.00 84 1009.5
20260505231742 48 349 8.7 13.9 0.00 0.00 0.00 84 1009.3
20260505230740 49 2 10.4 13.9 0.00 0.00 0.00 83 1009.5
20260505230512 49 353 9.6 13.0 0.00 0.00 0.00 83 1009.3
20260505225738 49 357 10.4 13.0 0.00 0.00 0.00 83 1009.4
20260505225237 49 350 11.3 14.8 0.00 0.00 0.00 83 1009.4
20260505224736 49 350 9.6 14.8 0.00 0.00 0.00 82 1009.4
20260505224236 49 357 7.8 14.8 0.00 0.00 0.00 82 1009.5
20260505223736 49 358 11.3 14.8 0.00 0.00 0.00 82 1009.6
20260505223236 49 25 7.0 11.3 0.00 0.00 0.00 80 1009.6
20260505222735 50 27 8.7 15.6 0.00 0.00 0.00 80 1009.6
20260505222234 50 0 8.7 15.6 0.00 0.00 0.00 80 1009.6
20260505221735 50 18 12.2 14.8 0.00 0.00 0.00 80 1009.6
20260505221230 50 0 9.6 14.8 0.00 0.00 0.00 80 1009.6
20260505221225 50 13 9.6 14.8 0.00 0.00 0.00 81 1009.6
20260505220231 50 6 11.3 14.8 0.00 0.00 0.00 81 1009.6
20260505215732 50 0 11.3 16.5 0.00 0.00 0.00 81 1009.6
20260505215233 50 3 10.4 16.5 0.00 0.00 0.00 81 1009.8
20260505214730 50 352 9.6 15.6 0.00 0.00 0.00 81 1009.8
20260505214455 50 357 9.6 15.6 0.00 0.00 0.00 81 1009.8
20260505213730 51 7 13.0 14.8 0.00 0.00 0.00 80 1009.7
20260505213231 51 8 8.7 16.5 0.00 0.00 0.00 80 1009.8
20260505212956 51 15 9.6 16.5 0.00 0.00 0.00 80 1009.7
20260505212228 51 5 10.4 15.6 0.00 0.00 0.00 80 1009.9
20260505211957 51 358 11.3 15.6 0.00 0.00 0.00 80 1009.9
20260505211227 51 3 11.3 15.6 0.00 0.00 0.00 80 1009.8
20260505210728 51 16 11.3 15.6 0.00 0.00 0.00 80 1009.8
20260505210451 51 1 13.0 16.5 0.00 0.00 0.00 81 1009.9
20260505205952 51 357 11.3 16.5 0.00 0.00 0.00 80 1009.8
20260505205225 51 6 7.8 20.0 0.00 0.00 0.00 79 1009.9
20260505204958 51 1 10.4 21.7 0.00 0.00 0.00 78 1009.8
20260505204722 52 1 13.0 22.6 0.00 0.00 0.00 77 1010.0
20260505203725 52 356 15.6 24.3 0.00 0.00 0.00 77 1009.9
20260505203224 52 21 19.1 24.3 0.00 0.00 0.00 77 1009.9
20260505202723 52 9 15.6 22.6 0.00 0.00 0.00 77 1009.9
20260505202452 52 6 14.8 19.1 0.00 0.00 0.00 77 1009.8
20260505201955 52 9 9.6 20.9 0.00 0.00 0.00 77 1009.9
20260505201220 52 11 14.8 20.9 0.00 0.00 0.00 77 1009.8
20260505200719 52 16 13.0 19.1 0.00 0.00 0.00 77 1010.0
20260505200219 52 17 10.4 18.2 0.00 0.00 0.00 77 1009.9
20260505195733 53 9 13.0 18.2 0.00 0.00 0.00 77 1009.9
20260505195218 53 12 12.2 18.2 0.00 0.00 0.00 76 1009.7
20260505194718 53 15 13.0 22.6 0.00 0.00 0.00 76 1009.7
20260505194219 53 10 15.6 23.5 0.00 0.00 0.00 76 1009.6
20260505193716 53 12 12.2 23.5 0.00 0.00 0.00 76 1009.8
20260505193446 53 13 12.2 23.5 0.00 0.00 0.00 76 1009.6
20260505192717 53 12 14.8 23.5 0.00 0.00 0.00 75 1009.6
20260505192215 53 2 13.0 20.0 0.00 0.00 0.00 75 1009.4
20260505191949 53 15 11.3 22.6 0.00 0.00 0.00 74 1009.5
20260505191213 54 10 16.5 22.6 0.00 0.00 0.00 74 1009.5
20260505190714 54 1 17.4 21.7 0.00 0.00 0.00 74 1009.5
20260505190211 54 10 15.6 21.7 0.00 0.00 0.00 74 1009.3
20260505185711 54 17 18.2 20.9 0.00 0.00 0.00 74 1009.2
20260505185211 54 15 10.4 17.4 0.00 0.00 0.00 74 1009.1
20260505184712 55 31 9.6 18.2 0.00 0.00 0.00 73 1009.1
20260505184437 55 15 16.5 18.2 0.00 0.00 0.00 73 1009.1
20260505183936 55 23 13.0 20.0 0.00 0.00 0.00 73 1009.2
20260505183208 55 5 11.3 20.0 0.00 0.00 0.00 72 1009.0
20260505182710 55 353 9.6 17.4 0.00 0.00 0.00 73 1009.1
20260505182207 56 15 14.8 18.2 0.00 0.00 0.00 72 1009.1
20260505181707 56 14 14.8 19.1 0.00 0.00 0.00 72 1009.0
20260505181205 56 24 10.4 19.1 0.00 0.00 0.00 71 1008.9
20260505180706 56 8 13.0 19.1 0.00 0.00 0.00 70 1008.9
20260505180208 57 23 12.2 20.9 0.00 0.00 0.00 70 1009.0
20260505175704 57 10 16.5 20.9 0.00 0.00 0.00 69 1009.0
20260505175428 57 8 10.4 22.6 0.00 0.00 0.00 69 1008.7
20260505174705 57 8 16.5 22.6 0.00 0.00 0.00 68 1008.9
20260505174203 58 16 12.2 18.2 0.00 0.00 0.00 67 1008.8
20260505173703 58 23 14.8 21.7 0.00 0.00 0.00 68 1008.9
20260505173205 59 9 13.9 21.7 0.00 0.00 0.00 67 1008.8
20260505172702 59 7 13.0 20.9 0.00 0.00 0.00 67 1008.7
20260505172201 59 5 14.8 19.1 0.00 0.00 0.00 66 1008.9
20260505171702 59 9 11.3 19.1 0.00 0.00 0.00 67 1008.9
20260505171200 59 9 10.4 19.1 0.00 0.00 0.00 65 1008.8
20260505170701 60 26 11.3 18.2 0.00 0.00 0.00 65 1008.9
20260505170159 60 3 16.5 18.2 0.00 0.00 0.00 67 1008.9
20260505165659 60 3 13.9 17.4 0.00 0.00 0.00 65 1009.0
20260505165157 61 354 10.4 19.1 0.00 0.00 0.00 66 1009.0
20260505164658 61 5 13.0 19.1 0.00 0.00 0.00 65 1009.0
20260505163922 61 22 9.6 18.2 0.00 0.00 0.00 65 1009.1
20260505163155 61 13 13.0 18.2 0.00 0.00 0.00 65 1009.2
20260505162657 62 359 8.7 19.1 0.00 0.00 0.00 63 1009.0
20260505162404 63 357 9.6 15.6 0.00 0.00 0.00 61 1009.2
20260505161154 63 357 11.3 19.1 0.00 0.00 0.00 64 1009.1
20260505160922 63 11 12.2 19.1 0.00 0.00 0.00 63 1009.2
20260505160152 63 3 12.2 20.0 0.00 0.00 0.00 63 1009.2
20260505153151 62 9 10.4 17.4 0.00 0.00 0.00 64 1009.3
20260505152650 61 345 11.3 16.5 0.00 0.00 0.00 66 1009.4
20260505152148 61 358 9.6 18.2 0.00 0.00 0.00 67 1009.3
20260505151647 61 14 7.8 18.2 0.00 0.00 0.00 64 1009.5
20260505151418 62 8 11.3 16.5 0.00 0.00 0.00 64 1009.4
20260505150646 62 3 11.3 13.9 0.00 0.00 0.00 65 1009.4
20260505150148 62 353 11.3 13.9 0.00 0.00 0.00 71 1009.4
20260505140641 63 350 6.1 16.5 0.00 0.00 0.00 66 1009.9
20260505140139 64 8 9.6 17.4 0.00 0.00 0.00 68 1009.7
20260505124900 62 354 6.1 12.2 0.00 0.00 0.00 75 1010.1
20260505124129 61 8 6.1 11.3 0.00 0.00 0.00 75 1010.2
20260505123629 60 9 7.8 11.3 0.00 0.00 0.00 77 1010.3
20260505123128 60 359 10.4 13.9 0.00 0.00 0.00 75 1010.3
20260505122630 60 12 8.7 13.9 0.00 0.00 0.00 75 1010.5
20260505122127 60 359 8.7 16.5 0.00 0.00 0.00 76 1010.3
20260505121627 61 6 3.5 16.5 0.00 0.00 0.00 73 1010.4
20260505121352 63 16 11.3 14.8 0.00 0.00 0.00 73 1010.3
20260505120626 63 2 10.4 14.8 0.00 0.00 0.00 72 1010.4
20260505120352 63 356 8.7 12.2 0.00 0.00 0.00 73 1010.3
20260505115625 64 2 6.1 13.0 0.00 0.00 0.00 72 1010.3
20260505115125 63 9 5.2 13.0 0.00 0.00 0.00 74 1010.4
20260505114625 62 7 10.4 14.8 0.00 0.00 0.00 74 1010.2
20260505114123 62 3 8.7 15.6 0.00 0.00 0.00 73 1010.4
20260505113623 62 4 9.6 15.6 0.00 0.00 0.00 76 1010.4
20260505113355 61 0 7.8 14.8 0.00 0.00 0.00 74 1010.4
20260505112622 61 16 11.3 15.6 0.00 0.00 0.00 76 1010.5
20260505112122 61 0 10.4 16.5 0.00 0.00 0.00 76 1010.4
20260505111852 60 6 9.6 18.2 0.00 0.00 0.00 74 1010.6
20260505111120 60 3 12.2 20.0 0.00 0.00 0.00 75 1010.6
20260505110852 59 26 12.2 20.0 0.00 0.00 0.00 74 1010.6
20260505110119 58 25 13.0 16.5 0.00 0.00 0.00 79 1010.6
20260505102116 55 10 13.9 18.2 0.00 0.00 0.00 85 1011.1
20260505101614 55 20 10.4 20.0 0.00 0.00 0.00 84 1011.0
20260505101111 54 14 15.6 20.0 0.00 0.00 0.00 85 1010.7
20260505100611 54 344 13.0 18.2 0.00 0.00 0.00 86 1011.0
20260505100110 54 18 9.6 18.2 0.00 0.00 0.00 85 1010.9
20260505095611 54 0 14.8 18.2 0.00 0.00 0.00 87 1010.9
20260505095109 53 5 13.0 16.5 0.00 0.00 0.00 86 1011.1
20260505094610 53 19 12.2 16.5 0.00 0.00 0.00 86 1011.0
20260505094108 54 16 11.3 15.6 0.00 0.00 0.00 87 1010.9
20260505093609 54 351 13.0 15.6 0.00 0.00 0.00 87 1011.2
20260505093107 54 4 10.4 15.6 0.00 0.00 0.00 88 1011.1
20260505092607 53 10 8.7 16.5 0.00 0.00 0.00 89 1011.1
20260505092332 53 11 12.2 17.4 0.00 0.00 0.00 88 1011.0
20260505091606 53 16 14.8 17.4 0.00 0.00 0.00 88 1011.1
20260505091104 53 352 11.3 14.8 0.00 0.00 0.00 89 1011.0
20260505090604 52 15 10.4 18.2 0.00 0.00 0.00 90 1011.1
20260505090107 52 5 10.4 16.5 0.00 0.00 0.00 91 1011.2
20260505085603 52 15 8.7 18.2 0.00 0.00 0.00 91 1011.2
20260505085103 52 10 9.6 18.2 0.00 0.00 0.00 91 1011.3
20260505084832 52 20 10.4 17.4 0.00 0.00 0.00 92 1011.2
20260505084104 52 20 12.2 14.8 0.00 0.00 0.00 92 1011.4
20260505083601 52 1 9.6 17.4 0.00 0.00 0.00 92 1011.3
20260505083101 51 358 13.0 17.4 0.00 0.00 0.00 92 1011.2
20260505082603 51 19 13.0 17.4 0.00 0.00 0.00 92 1011.3
20260505082100 51 16 11.3 17.4 0.00 0.00 0.00 92 1011.2
20260505081600 51 27 16.5 19.1 0.00 0.00 0.00 92 1011.2
20260505081058 51 16 12.2 19.1 0.00 0.00 0.00 93 1011.2
20260505080827 52 11 9.6 13.9 0.00 0.00 0.00 93 1011.3
20260505080324 51 16 10.4 20.0 0.00 0.00 0.00 93 1011.2
20260505075559 51 4 9.6 20.0 0.00 0.00 0.00 93 1011.0
20260505075056 51 19 13.0 19.1 0.00 0.00 0.00 94 1011.0
20260505074557 51 16 7.8 19.1 0.00 0.00 0.00 94 1011.1
20260505074057 51 12 14.8 16.5 0.00 0.00 0.00 94 1011.0
20260505073558 51 5 9.6 17.4 0.00 0.00 0.00 94 1011.1
20260505073054 51 17 11.3 18.2 0.00 0.00 0.00 94 1011.0
20260505072556 51 356 11.3 18.2 0.00 0.00 0.00 95 1011.0
20260505072054 51 25 14.8 15.6 0.00 0.00 0.00 95 1010.9
20260505071553 51 27 7.8 15.6 0.00 0.00 0.00 96 1011.0
20260505071052 51 9 10.4 18.2 0.00 0.00 0.00 96 1011.0
20260505070551 51 10 12.2 18.2 0.00 0.00 0.00 96 1011.0
20260505070052 51 14 11.3 17.4 0.00 0.00 0.00 97 1011.0
20260505065551 51 27 8.7 19.1 0.00 0.00 0.00 97 1011.1
20260505065324 51 4 8.7 20.0 0.00 0.00 0.00 97 1011.1
20260505064551 51 16 11.3 20.0 0.00 0.00 0.00 97 1011.2
20260505064049 51 3 13.9 17.4 0.00 0.00 0.00 97 1011.2
20260505063823 51 17 13.0 17.4 0.00 0.00 0.00 97 1011.4
20260505063321 51 9 8.7 13.9 0.00 0.00 0.00 97 1011.1
20260505062549 51 353 8.7 13.9 0.00 0.00 0.00 97 1011.3
20260505062321 51 14 9.6 13.0 0.00 0.00 0.00 97 1011.4
20260505061554 51 2 8.7 13.9 0.00 0.00 0.00 96 1011.3
20260505060545 51 355 11.3 14.8 0.00 0.00 0.00 96 1011.2
20260505060046 51 2 9.6 13.9 0.00 0.00 0.00 95 1011.4
20260505055547 51 355 8.7 13.9 0.00 0.00 0.00 95 1011.5
20260505055045 51 15 8.7 13.0 0.00 0.00 0.00 94 1011.4
20260505054545 51 358 7.0 13.0 0.00 0.00 0.00 94 1011.4
20260505054043 51 8 7.8 14.8 0.00 0.00 0.00 94 1011.5
20260505053542 51 3 10.4 14.8 0.00 0.00 0.00 94 1011.6
20260505053041 51 354 10.4 13.9 0.00 0.00 0.00 94 1011.5
20260505052812 51 358 7.0 13.0 0.00 0.00 0.00 93 1011.5
20260505052310 51 20 10.4 13.9 0.00 0.00 0.00 93 1011.4
20260505051539 51 33 8.7 13.9 0.00 0.00 0.00 93 1011.5
20260505051038 51 4 7.0 16.5 0.00 0.00 0.00 93 1011.4
20260505050804 51 12 12.2 16.5 0.00 0.00 0.00 93 1011.4
20260505041533 51 358 11.3 17.4 0.00 0.00 0.00 93 1011.3
20260505041259 51 16 7.8 17.4 0.00 0.00 0.00 92 1011.2
20260505041028 51 9 9.6 14.8 0.00 0.00 0.00 92 1011.2
20260505040032 51 354 7.0 15.6 0.00 0.00 0.00 92 1011.3
20260505035537 51 18 9.6 16.5 0.00 0.00 0.00 92 1011.2
20260505035533 51 19 12.2 15.6 0.00 0.00 0.00 92 1011.3
20260505034532 51 1 11.3 16.5 0.00 0.00 0.00 92 1011.2
20260505034030 51 16 12.2 16.5 0.00 0.00 0.00 91 1011.3
20260505033752 51 0 11.3 16.5 0.00 0.00 0.00 92 1011.2